Regional Weather Roundup
Issued by NWS

Home | Current Version | Previous Version | Graphics & Text | Print | Product List | Glossary On
Versions: 1 2 3 4 5 6 7 8 9 10 11 12 13 14 15 16 17 18 19 20 21 22 23 24 25 26 27 28 29 30 31 32 33 34 35 36 37 38 39 40 41 42 43 44 45 46 47 48 49 50
243
ASUS45 KTFX 250110
RWRMT
MONTANA REGIONAL WEATHER ROUNDUP
NATIONAL WEATHER SERVICE GREAT FALLS MT
700 PM MDT SAT JUN 24 2017

NOTE: "FAIR" INDICATES FEW OR NO CLOUDS BELOW 12000 FEET WITH NO
SIGNIFICANT WEATHER AND/OR OBSTRUCTIONS TO VISIBILITY.

MTZ001>007-043-250200-
WEST OF THE DIVIDE

CITY           SKY/WX    TMP DP  RH WIND       PRES   REMARKS
KALISPELL      SUNNY     79  40  24 S3        30.19F
MISSOULA       SUNNY     80  32  17 N14       30.19F
BUTTE          SUNNY     73  31  21 W12       30.30S
MULLAN PASS    SUNNY     70  34  26 N3        30.34F
ANACONDA         N/A     72  36  26 N8        30.27F
DEER LODGE       N/A     73  36  25 N8        30.28S
EUREKA           N/A     81  34  18 MISG      30.18F
HAMILTON         N/A     79  37  22 NW12      30.20F
$$

MTZ008-052>055-250200-
SOUTHWEST MONTANA

CITY           SKY/WX    TMP DP  RH WIND       PRES   REMARKS
BOZEMAN        SUNNY     75  34  22 N6        30.26F
DILLON         SUNNY     75  39  27 NE9       30.25F
ENNIS          SUNNY     72  37  28 NW13      30.32F
THREE FORKS      N/A     75  39  27 NE6       30.23S
$$

MTZ009-010-012-014-046-048-049-054-250200-
EAST SLOPES AND CENTRAL MONTANA

CITY           SKY/WX    TMP DP  RH WIND       PRES   REMARKS
CUT BANK       MOSUNNY   68  41  37 E7        30.32S
GREAT FALLS    MOSUNNY   68  36  30 NE12      30.28F
MALMSTROM AFB  PTSUNNY   72  38  29 N12G18    30.29S
HELENA         SUNNY     79  34  19 N7        30.23S
CHOTEAU          N/A     64  41  42 NE5G24    30.35R
$$

MTZ011-013-016-021-045-047-050-051-250200-
NORTH CENTRAL MONTANA

CITY           SKY/WX    TMP DP  RH WIND       PRES   REMARKS
HAVRE          SUNNY     72  35  25 NW10      30.29S
LEWISTOWN      MOSUNNY   68  37  32 NE9       30.32F
N BAR RANCH      N/A     64  36  34 NE12G17   30.37R
CHINOOK          N/A     72  37  28 NW8       30.27F
FORT BENTON      N/A     68  39  34 MISG      30.31S
$$

MTZ017>020-022>027-061-062-250200-
NORTHEAST MONTANA

CITY           SKY/WX    TMP DP  RH WIND       PRES   REMARKS
GLASGOW        MOSUNNY   71  32  23 W6        30.26F
JORDAN           N/A     71  28  20 N7        30.28S
SIDNEY         MOSUNNY   67  35  30 E9        30.27
WOLF POINT     MOSUNNY   72  31  22 NE6       30.26S
MALTA          SUNNY     75  32  20 W10       30.25F
PLENTYWOOD       N/A     64  34  32 CALM      30.26F
POPLAR           N/A     70  34  26 NE3       30.26F
$$

MTZ028>42-056>058-250200-
SOUTHCENTRAL AND SOUTHEAST MONTANA

CITY           SKY/WX    TMP DP  RH WIND       PRES   REMARKS
BAKER          MOSUNNY   67  29  24 N16       30.30S
BILLINGS       MOSUNNY   72  32  23 E14       30.28R
LIVINGSTON     SUNNY     74  39  28 E12       30.27F
MILES CITY     MOSUNNY   71  26  18 NE14G21   30.28R
BIG TIMBER     PTSUNNY   72  39  30 NE13      30.32R
FORSYTH          N/A     72  30  21 N7G16     30.27S
ROUNDUP          N/A     69  33  26 N6        30.20S
$$

REGIONAL REPORTS...DAKOTAS

CITY           SKY/WX    TMP DP  RH WIND       PRES   REMARKS
WILLISTON      MOSUNNY   69  33  26 N10       30.27F
MINOT          MOSUNNY   61  37  41 NW17      30.24S
DICKINSON      SUNNY     61  29  29 N14       30.27S
BEACH            N/A     64  30  27 N14       30.32S
CROSBY           N/A     64  36  34 N9G16     30.26S
TIOGA            N/A     61  34  36 N15       30.28S
WATFORD CITY     N/A     63  37  39 N10       30.27S
BISMARCK       MOSUNNY   62  38  40 N15G25    30.25R
GRAND FORKS    LGT RAIN  51  50  96 N14       30.14R FOG
FARGO          CLOUDY    56  47  71 N24G32    30.13R
BUFFALO SD       N/A     69  31  24 N16G25    30.22R
RAPID CITY     SUNNY     72  29  20 N14G28    30.26R
$$

REGIONAL REPORTS...WYOMING/IDAHO/WASHINGTON

CITY           SKY/WX    TMP DP  RH WIND       PRES   REMARKS
GILLETTE       MOSUNNY   70  28  21 N12       30.29F
SHERIDAN       PTSUNNY   69  38  32 N8        30.30R
BUFFALO WY     MOSUNNY   65  36  34 N8        30.34S
CODY           MOSUNNY   69  35  28 N15       30.31S
YELLOWSTONE LA   N/A     65  28  24 NW8       30.41S
IDAHO FALLS    MOSUNNY   81  35  19 CALM      30.21F
SALMON         SUNNY     82  37  20 N7        30.13F
BOISE          SUNNY     88  34  14 W10       30.08F
SPOKANE        MOSUNNY   85  32  15 NW6       30.16F
$$

REGIONAL REPORTS...ALBERTA

CITY           SKY/WX    TMP DP  RH WIND       PRES   REMARKS
EDMONTON       SUNNY     70  43  37 NW5       30.24S
CALGARY        MOSUNNY   70  41  35 E10       30.29F
LETHBRIDGE     MOSUNNY   68  48  49 E14       30.30S
MEDICINE HAT   MOSUNNY   68  45  42 SW7       30.27F
WATERTON GATE    N/A     66  45  45 E10         N/A
CARDSTON         N/A     68  41  37 E8          N/A
MILK RIVER       N/A     68  43  40 E5          N/A
ONEFOUR          N/A     68  37  32 NW12        N/A
$$

REGIONAL REPORTS...SASKATCHEWAN

CITY           SKY/WX    TMP DP  RH WIND       PRES   REMARKS
SWIFT CURRENT  CLOUDY    64  41  42 W8        30.25S
REGINA         LGT RAIN  61  43  51 NW10      30.24R
SASKATOON      MOSUNNY   64  46  52 SW5       30.22F
CYPRESS HILLS    N/A     61  34  36 NW6         N/A
ROCKGLEN         N/A     64  34  32 N10         N/A
$$




USA.gov is the U.S. government's official web portal to all federal, state and local government web resources and services.